This demonstration page uses our WeatherBlox Daily Observations layout. Learn more.

Left ArrowRight Arrow

40.92945, -100.16068

Hourly Observations for September 14, 2020

Temp ( °F °C ) Dew Point ( °F °C ) Humidity (%) Winds ( mph kmh ) Pressure ( in mb ) Visibility ( mi km ) Precip ( " mm )
12:15 am 00:15 Clear 60 15.6 51 10.3 71 71 S 5 7 30.19 1022 10 16 0.00 0.00
12:35 am 00:35 Clear 60 15.8 51 10.5 71 71 S 7 11 30.20 1023 10 16 0.00 0.00
12:55 am 00:55 Clear 61 16.2 52 11.1 72 72 S 7 11 30.19 1023 10 16 0.00 0.00
1:15 am 01:15 Clear 60 15.7 52 11.2 75 75 S 3 6 30.21 1023 10 16 0.00 0.00
1:35 am 01:35 Clear 60 15.7 52 11.2 75 75 Calm 30.21 1023 10 16 0.00 0.00
1:55 am 01:55 Clear 60 15.5 52 11.2 76 76 S 6 9 30.21 1023 10 16 0.00 0.00
2:15 am 02:15 Clear 60 15.4 52 11.1 76 76 S 6 9 30.21 1023 10 16 0.00 0.00
2:35 am 02:35 Clear 60 15.8 52 11.1 74 74 S 5 7 30.21 1023 10 16 0.00 0.00
2:55 am 02:55 Clear 59 15.2 52 11.1 77 77 S 6 9 30.22 1023 10 16 0.00 0.00
3:15 am 03:15 Clear 57 14.1 52 11 82 82 Calm 30.23 1024 10 16 0.00 0.00
3:35 am 03:35 Clear 56 13.4 51 10.7 84 84 Calm 30.24 1024 10 16 0.00 0.00
3:55 am 03:55 Clear 52 11.3 50 9.8 91 91 Calm 30.26 1025 10 16 0.00 0.00
4:15 am 04:15 Clear 51 10.5 49 9.5 94 94 Calm 30.28 1025 10 16 0.00 0.00
4:35 am 04:35 Clear 51 10.5 49 9.3 92 92 Calm 30.28 1025 10 16 0.00 0.00
4:55 am 04:55 Clear 51 10.3 49 9.2 93 93 Calm 30.28 1025 10 16 0.00 0.00
5:15 am 05:15 Clear 50 10.2 49 9.2 94 94 ENE 3 6 30.28 1025 10 16 0.00 0.00
5:35 am 05:35 Clear 50 10 48 9.1 94 94 Calm 30.28 1025 10 16 0.00 0.00
5:55 am 05:55 Clear 50 10 48 9.1 94 94 ENE 5 7 30.28 1025 10 16 0.00 0.00
6:15 am 06:15 Clear 50 9.9 49 9.2 95 95 ENE 5 7 30.29 1026 7 11 0.00 0.00
6:35 am 06:35 Clear 49 9.6 48 9 96 96 ENE 3 6 30.29 1026 7 11 0.00 0.00
6:55 am 06:55 Clear 48 8.9 47 8.1 95 95 Calm 30.30 1026 7 11 0.00 0.00
7:15 am 07:15 Clear 48 8.8 47 8.2 96 96 Calm 30.30 1026 7 11 0.00 0.00
7:35 am 07:35 Sunny with Mist and Fog 48 8.8 47 8.2 96 96 Calm 30.30 1026 5 8 0.00 0.00
7:55 am 07:55 Sunny 48 9 47 8.2 95 95 Calm 30.31 1026 7 11 0.00 0.00
8:15 am 08:15 Sunny 49 9.5 48 8.7 95 95 Calm 30.32 1027 7 11 0.00 0.00
8:35 am 08:35 Sunny 51 10.6 49 9.7 94 94 Calm 30.31 1026 7 11 0.00 0.00
8:55 am 08:55 Sunny 53 11.7 51 10.6 93 93 Calm 30.30 1026 10 16 0.00 0.00
9:15 am 09:15 Sunny 55 13 53 11.5 91 91 Calm 30.28 1026 10 16 0.00 0.00
9:35 am 09:35 Sunny 58 14.6 54 12.2 86 86 Calm 30.27 1025 10 16 0.00 0.00
9:55 am 09:55 Sunny 61 16.3 55 12.6 79 79 Calm 30.25 1025 10 16 0.00 0.00
10:15 am 10:15 Sunny 64 17.8 55 13 74 74 Calm 30.25 1024 10 16 0.00 0.00
10:35 am 10:35 Sunny 66 19 56 13.2 69 69 SSE 3 6 30.24 1024 10 16 0.00 0.00
10:55 am 10:55 Sunny 68 20.1 57 13.7 67 67 SSE 3 6 30.24 1024 10 16 0.00 0.00
11:15 am 11:15 Sunny 71 21.6 57 14 62 62 SSE 3 6 30.22 1023 10 16 0.00 0.00
11:35 am 11:35 Sunny 74 23.4 57 13.8 55 55 S 5 7 30.20 1023 10 16 0.00 0.00
11:55 am 11:55 Sunny 75 24.1 58 14.3 54 54 S 5 7 30.20 1023 10 16 0.00 0.00
12:15 pm 12:15 Sunny 79 25.9 54 12.4 43 43 S 10 17 30.18 1022 10 16 0.00 0.00
12:35 pm 12:35 Sunny 80 26.6 53 11.9 40 40 SSW 12 19 30.17 1022 10 16 0.00 0.00
12:55 pm 12:55 Sunny 80 26.8 53 11.4 38 38 S 13 20 30.15 1021 10 16 0.00 0.00
1:15 pm 13:15 Sunny 81 27.2 52 11 36 36 S 14 22 30.15 1021 10 16 0.00 0.00
1:35 pm 13:35 Sunny 82 27.5 52 11.2 36 36 SSW 12 19 30.14 1021 10 16 0.00 0.00
1:55 pm 13:55 Sunny 81 27.4 50 10.2 34 34 SSE 7 11 30.13 1020 10 16 0.00 0.00
2:15 pm 14:15 Sunny 82 27.8 52 10.9 35 35 S 10 17 30.13 1020 10 16 0.00 0.00
2:35 pm 14:35 Sunny 82 27.9 50 9.8 32 32 SSE 14 22 30.11 1020 10 16 0.00 0.00
2:55 pm 14:55 Sunny 83 28.2 49 9.6 31 31 SSE 14 22 30.10 1019 10 16 0.00 0.00
3:15 pm 15:15 Sunny 83 28.4 52 11 34 34 SSE 14 22 30.09 1019 10 16 0.00 0.00
3:35 pm 15:35 Sunny 83 28.1 51 10.7 34 34 SSE 14 22 30.09 1019 10 16 0.00 0.00
3:55 pm 15:55 Sunny 82 28 53 11.9 37 37 SE 14 22 30.08 1019 10 16 0.00 0.00
4:15 pm 16:15 Sunny 82 28 53 11.8 37 37 SSE 14 22 30.07 1018 10 16 0.00 0.00
4:35 pm 16:35 Sunny 82 28 53 11.5 36 36 SE 14 22 30.07 1018 10 16 0.00 0.00
4:55 pm 16:55 Sunny 82 27.7 52 11 35 35 SSE 15 24 30.08 1019 10 16 0.00 0.00
5:15 pm 17:15 Sunny 82 27.5 51 10.6 35 35 SE 12 19 30.07 1018 10 16 0.00 0.00
5:35 pm 17:35 Sunny 81 27.2 52 11.2 37 37 SSE 12 19 30.07 1018 10 16 0.00 0.00
5:55 pm 17:55 Sunny 80 26.7 52 11 37 37 SSE 13 20 30.07 1018 10 16 0.00 0.00
6:15 pm 18:15 Sunny 79 26.2 51 10.5 37 37 SSE 10 17 30.08 1019 10 16 0.00 0.00
6:35 pm 18:35 Sunny 78 25.6 51 10.5 39 39 SSE 10 17 30.08 1019 10 16 0.00 0.00
6:55 pm 18:55 Sunny 77 24.8 52 11.1 42 42 SSE 8 13 30.09 1019 10 16 0.00 0.00
7:15 pm 19:15 Sunny 75 23.7 52 11.3 46 46 SE 7 11 30.09 1019 10 16 0.00 0.00
7:35 pm 19:35 Sunny 73 22.8 53 11.4 49 49 SE 8 13 30.10 1019 10 16 0.00 0.00
7:55 pm 19:55 Clear 71 21.9 53 11.5 52 52 SE 7 11 30.11 1019 10 16 0.00 0.00
8:15 pm 20:15 Clear 71 21.4 53 11.6 54 54 SSE 9 15 30.11 1020 10 16 0.00 0.00
8:35 pm 20:35 Clear 69 20.4 53 11.7 58 58 SSE 8 13 30.12 1020 10 16 0.00 0.00
8:55 pm 20:55 Clear 68 19.8 53 11.8 60 60 SSE 9 15 30.13 1020 10 16 0.00 0.00
9:15 pm 21:15 Clear 67 19.4 53 11.7 61 61 SE 8 13 30.15 1021 10 16 0.00 0.00
9:35 pm 21:35 Clear 65 18.4 53 11.7 65 65 SSE 8 13 30.17 1022 10 16 0.00 0.00
9:55 pm 21:55 Clear 64 17.5 53 11.8 69 69 SSE 8 13 30.17 1022 10 16 0.00 0.00
10:15 pm 22:15 Clear 62 16.8 53 11.7 72 72 SSE 7 11 30.18 1022 10 16 0.00 0.00
10:35 pm 22:35 Clear 62 16.6 54 12 74 74 SSE 10 17 30.18 1022 10 16 0.00 0.00
10:55 pm 22:55 Clear 62 16.7 53 11.9 73 73 SSE 9 15 30.18 1022 10 16 0.00 0.00
11:15 pm 23:15 Clear 62 16.9 54 12 73 73 SSE 10 17 30.18 1022 10 16 0.00 0.00
11:35 pm 23:35 Clear 62 16.7 54 12.2 75 75 SSE 12 19 30.18 1022 10 16 0.00 0.00
11:55 pm 23:55 Clear 62 16.5 54 12.2 76 76 SSE 12 19 30.18 1022 10 16 0.00 0.00

Powered by AerisWeather